Temp
-17 -18 -20 -20 -19 -19 -19 -19 -19 -19 -19 -18 -18 -18 -19 -20 -20 -20 -20 -20 -20 -20 -21 -21 -21 -21 -21 -21 -21 -19 -19 -17 -16 -16 -16 -16 -16 -16 -15 -15 -15 -15 -14
-18 -19 -21 -20 -19 -19 -19 -19 -19 -19 -19 -18 -18 -18 -19 -20 -20 -21 -21 -21 -21 -21 -23 -23 -22 -22 -22 -22 -22 -20 -20 -19 -17 -17 -17 -17 -16 -15 -15 -15 -15 -16 -16
-19 -21 -20 -20 -20 -19 -19 -19 -19 -19 -19 -18 -19 -19 -20 -20 -20 -21 -21 -21 -21 -23 -24 -23 -23 -23 -22 -23 -22 -21 -21 -21 -19 -18 -18 -17 -16 -16 -16 -15 -15 -15 -16
-20 -21 -20 -20 -20 -19 -19 -19 -19 -19 -18 -19 -19 -20 -20 -20 -21 -21 -21 -21 -22 -23 -24 -23 -23 -23 -23 -23 -23 -22 -22 -22 -20 -19 -18 -18 -19 -19 -17 -17 -16 -15 -16
-21 -21 -20 -20 -20 -20 -19 -19 -19 -18 -19 -19 -19 -20 -20 -20 -21 -21 -21 -22 -23 -23 -24 -24 -23 -23 -23 -23 -24 -23 -23 -22 -21 -19 -18 -19 -19 -19 -19 -17 -16 -16 -16
-20 -20 -20 -20 -20 -20 -19 -19 -18 -19 -19 -19 -19 -19 -20 -20 -21 -21 -21 -22 -22 -23 -23 -24 -24 -23 -24 -24 -23 -23 -23 -22 -21 -20 -20 -20 -19 -18 -18 -17 -17 -17 -16
-20 -20 -20 -20 -20 -20 -20 -19 -18 -19 -19 -19 -19 -20 -20 -20 -20 -21 -21 -22 -22 -22 -23 -23 -23 -23 -23 -23 -23 -23 -22 -22 -21 -20 -20 -19 -19 -18 -18 -17 -17 -17 -16
-20 -20 -20 -20 -20 -20 -20 -19 -19 -19 -19 -19 -19 -20 -20 -20 -20 -21 -21 -21 -22 -22 -22 -22 -22 -22 -23 -22 -22 -22 -22 -21 -21 -20 -20 -19 -19 -19 -18 -17 -17 -17 -17
-20 -20 -20 -20 -20 -20 -20 -19 -19 -19 -19 -19 -19 -19 -20 -20 -20 -21 -21 -21 -21 -21 -21 -21 -22 -22 -22 -22 -22 -21 -20 -20 -20 -19 -19 -19 -19 -19 -19 -19 -18 -18 -18
-19 -20 -20 -20 -20 -20 -20 -20 -19 -19 -18 -18 -18 -19 -19 -20 -20 -20 -20 -20 -20 -21 -21 -21 -21 -21 -21 -21 -21 -21 -21 -21 -20 -20 -19 -20 -20 -20 -19 -19 -18 -18 -19
-19 -20 -20 -20 -20 -20 -20 -20 -20 -20 -20 -20 -20 -20 -20 -20 -20 -20 -20 -20 -20 -20 -20 -20 -21 -21 -21 -21 -21 -20 -20 -20 -20 -20 -20 -20 -20 -20 -20 -19 -19 -19 -18
-18 -19 -19 -20 -20 -20 -20 -20 -20 -20 -20 -20 -20 -20 -20 -20 -21 -21 -21 -20 -20 -20 -20 -20 -20 -20 -20 -20 -20 -20 -20 -20 -20 -20 -20 -20 -20 -20 -20 -20 -19 -18 -19
-17 -18 -19 -19 -19 -20 -20 -20 -20 -20 -20 -20 -20 -20 -20 -20 -20 -20 -21 -20 -21 -21 -21 -21 -21 -21 -21 -21 -21 -21 -21 -21 -21 -21 -21 -21 -21 -21 -20 -21 -21 -22 -22
-18 -18 -18 -19 -19 -19 -20 -20 -20 -20 -20 -20 -20 -20 -20 -20 -20 -21 -21 -21 -21 -20 -20 -20 -20 -20 -20 -20 -20 -21 -21 -21 -21 -21 -21 -21 -22 -21 -21 -21 -21 -20 -20
-18 -18 -18 -19 -19 -19 -19 -19 -20 -20 -20 -20 -20 -20 -20 -20 -20 -20 -20 -20 -20 -20 -20 -20 -21 -21 -21 -21 -21 -20 -20 -20 -20 -20 -20 -20 -20 -20 -20 -20 -20 -20 -20
-18 -18 -18 -18 -19 -19 -19 -19 -19 -20 -20 -20 -20 -20 -20 -20 -20 -20 -20 -20 -20 -20 -20 -20 -20 -20 -20 -20 -20 -21 -20 -21 -21 -21 -21 -21 -21 -20 -21 -21 -21 -21 -21
-18 -18 -18 -19 -19 -19 -19 -19 -20 -20 -20 -20 -20 -20 -20 -20 -20 -20 -20 -20 -20 -20 -20 -20 -20 -20 -20 -20 -20 -20 -20 -21 -20 -20 -20 -21 -21 -21 -21 -21 -21 -21 -21
-18 -18 -19 -19 -19 -19 -19 -20 -20 -20 -20 -20 -20 -20 -20 -20 -20 -20 -20 -20 -20 -20 -20 -20 -20 -20 -20 -20 -20 -20 -20 -20 -20 -20 -20 -20 -21 -20 -21 -21 -21 -22 -22
-18 -18 -19 -19 -19 -19 -20 -20 -20 -20 -20 -20 -20 -20 -20 -20 -20 -20 -20 -20 -20 -20 -20 -20 -21 -20 -20 -21 -21 -21 -21 -21 -21 -21 -21 -22 -22 -22 -22 -22 -22 -22 -22
-18 -19 -19 -19 -19 -19 -19 -20 -20 -20 -20 -20 -20 -20 -20 -20 -20 -20 -20 -20 -20 -20 -21 -21 -21 -21 -21 -21 -21 -21 -21 -21 -22 -22 -22 -22 -22 -22 -22 -23 -23 -23 -24
-19 -18 -19 -19 -19 -19 -19 -19 -19 -20 -20 -20 -20 -20 -20 -20 -20 -20 -20 -21 -20 -21 -21 -21 -21 -21 -22 -22 -22 -22 -22 -22 -22 -22 -22 -23 -23 -23 -23 -23 -23 -24 -24
-19 -19 -19 -19 -19 -19 -19 -19 -20 -20 -20 -20 -20 -20 -20 -20 -20 -21 -21 -21 -21 -21 -21 -21 -22 -22 -22 -22 -22 -22 -22 -23 -23 -23 -23 -23 -23 -23 -24 -24 -24 -24 -25
-20 -19 -19 -20 -20 -20 -20 -20 -20 -20 -20 -20 -20 -21 -21 -21 -21 -21 -21 -21 -21 -22 -22 -22 -22 -22 -22 -23 -23 -23 -23 -23 -23 -24 -24 -24 -24 -24 -24 -24 -25 -25 -26
-20 -20 -20 -20 -20 -20 -21 -20 -21 -21 -21 -21 -21 -21 -21 -22 -22 -22 -22 -22 -22 -23 -22 -22 -23 -23 -23 -23 -23 -23 -23 -24 -24 -24 -24 -25 -25 -25 -25 -25 -26 -26 -26
-20 -20 -20 -20 -20 -20 -20 -21 -21 -22 -22 -22 -22 -22 -22 -22 -22 -23 -23 -23 -23 -23 -23 -23 -24 -24 -24 -24 -24 -24 -24 -24 -24 -25 -25 -25 -25 -25 -26 -26 -26 -27 -27
-21 -21 -21 -21 -21 -20 -20 -20 -21 -22 -22 -22 -22 -23 -23 -23 -23 -24 -24 -24 -24 -24 -24 -24 -24 -24 -24 -24 -24 -25 -25 -25 -25 -25 -25 -26 -26 -26 -26 -27 -27 -27 -27
Height
5569 5559 5549 5541 5535 5529 5524 5518 5512 5506 5499 5493 5485 5474 5464 5457 5449 5443 5436 5428 5423 5418 5413 5409 5412 5420 5429 5439 5452 5463 5476 5488 5502 5520 5534 5546 5556 5566 5575 5577 5586 5589 5593
5558 5548 5540 5533 5527 5522 5515 5510 5505 5498 5489 5481 5471 5461 5452 5444 5435 5427 5417 5408 5401 5395 5386 5381 5385 5393 5404 5417 5429 5444 5458 5471 5485 5501 5517 5531 5540 5552 5559 5562 5571 5574 5579
5548 5539 5532 5527 5521 5515 5508 5502 5497 5490 5480 5470 5460 5450 5441 5433 5422 5411 5400 5392 5385 5375 5367 5363 5364 5372 5384 5399 5412 5426 5441 5455 5468 5485 5502 5515 5524 5534 5543 5550 5557 5560 5565
5540 5533 5527 5521 5515 5509 5503 5496 5490 5482 5472 5461 5452 5441 5432 5422 5411 5399 5388 5381 5374 5365 5356 5353 5354 5361 5372 5387 5400 5414 5429 5440 5455 5471 5487 5499 5509 5519 5529 5538 5543 5545 5551
5534 5529 5523 5517 5510 5504 5497 5490 5483 5475 5467 5457 5445 5434 5425 5416 5404 5392 5381 5375 5369 5361 5354 5351 5352 5358 5368 5380 5393 5405 5417 5430 5443 5458 5476 5490 5498 5510 5520 5525 5527 5534 5535
5531 5526 5520 5514 5507 5501 5494 5486 5478 5470 5464 5453 5442 5432 5422 5413 5403 5391 5380 5373 5368 5362 5358 5356 5357 5362 5369 5378 5389 5400 5413 5422 5436 5452 5468 5480 5490 5498 5507 5514 5514 5519 5528
5529 5524 5518 5512 5505 5498 5491 5484 5476 5469 5462 5453 5443 5433 5423 5415 5407 5396 5384 5376 5370 5366 5363 5362 5364 5368 5374 5381 5390 5400 5410 5420 5433 5447 5461 5471 5479 5488 5495 5496 5504 5513 5516
5527 5522 5517 5511 5504 5497 5491 5484 5477 5468 5463 5455 5445 5436 5427 5419 5412 5403 5394 5385 5378 5374 5371 5370 5370 5373 5378 5384 5392 5400 5410 5422 5435 5448 5457 5464 5471 5476 5483 5487 5495 5499 5502
5526 5520 5516 5510 5505 5498 5493 5486 5478 5471 5463 5457 5448 5441 5433 5426 5418 5411 5404 5397 5391 5386 5384 5382 5381 5383 5387 5391 5396 5403 5414 5424 5434 5444 5451 5458 5464 5468 5472 5478 5481 5484 5490
5526 5520 5515 5511 5506 5500 5495 5488 5480 5473 5465 5457 5450 5442 5436 5430 5424 5418 5412 5407 5401 5396 5394 5394 5395 5396 5398 5402 5407 5412 5419 5427 5434 5441 5446 5450 5454 5458 5462 5466 5470 5475 5480
5526 5520 5516 5512 5507 5502 5497 5491 5483 5475 5468 5462 5455 5448 5442 5436 5430 5424 5419 5413 5410 5406 5404 5403 5404 5405 5407 5409 5413 5418 5424 5429 5433 5438 5442 5446 5449 5452 5454 5458 5460 5465 5468
5525 5520 5516 5512 5508 5505 5500 5495 5489 5481 5475 5468 5462 5456 5451 5445 5439 5433 5427 5421 5416 5414 5413 5412 5412 5413 5414 5416 5418 5420 5423 5427 5431 5434 5437 5441 5446 5448 5450 5451 5453 5457 5457
5525 5521 5517 5513 5508 5505 5502 5498 5492 5486 5480 5475 5469 5465 5459 5455 5449 5444 5439 5435 5432 5428 5426 5423 5422 5421 5421 5421 5422 5423 5425 5427 5429 5432 5435 5438 5440 5444 5444 5445 5447 5449 5452
5524 5519 5515 5513 5510 5505 5502 5498 5494 5490 5485 5480 5475 5471 5466 5462 5458 5454 5450 5446 5443 5440 5438 5436 5434 5433 5432 5432 5432 5432 5433 5434 5436 5437 5438 5439 5442 5445 5446 5447 5448 5450 5452
5521 5518 5513 5510 5508 5505 5502 5498 5494 5490 5487 5483 5479 5475 5471 5467 5464 5460 5456 5453 5451 5448 5446 5444 5442 5441 5440 5440 5439 5440 5440 5440 5440 5441 5442 5444 5445 5445 5445 5444 5444 5445 5445
5515 5513 5510 5508 5503 5501 5499 5496 5493 5489 5486 5483 5480 5476 5473 5469 5466 5463 5460 5457 5455 5452 5450 5448 5446 5443 5441 5441 5440 5440 5440 5440 5440 5440 5440 5440 5439 5437 5436 5436 5436 5436 5435
5509 5506 5503 5501 5500 5497 5494 5492 5489 5486 5483 5480 5476 5474 5471 5468 5465 5462 5459 5457 5454 5452 5450 5448 5446 5444 5442 5440 5439 5438 5437 5436 5435 5433 5430 5428 5427 5427 5426 5426 5425 5425 5424
5502 5499 5497 5494 5492 5491 5489 5486 5483 5481 5478 5475 5472 5470 5467 5464 5462 5459 5456 5454 5451 5449 5446 5444 5442 5440 5437 5436 5434 5432 5431 5429 5427 5425 5424 5422 5421 5420 5418 5417 5415 5413 5411
5492 5491 5489 5487 5484 5483 5481 5479 5476 5474 5471 5468 5466 5463 5460 5457 5455 5453 5450 5447 5445 5442 5440 5437 5435 5433 5431 5428 5425 5423 5421 5419 5417 5415 5414 5412 5411 5409 5408 5406 5404 5401 5398
5481 5480 5479 5477 5475 5473 5470 5468 5466 5464 5461 5459 5456 5454 5451 5449 5446 5443 5441 5438 5435 5433 5431 5429 5426 5423 5421 5418 5416 5413 5411 5408 5406 5404 5402 5400 5398 5396 5394 5391 5388 5385 5382
5470 5469 5467 5466 5463 5461 5459 5457 5455 5453 5450 5448 5446 5444 5441 5438 5436 5434 5431 5429 5426 5422 5420 5418 5416 5413 5410 5407 5405 5402 5399 5397 5394 5392 5390 5387 5384 5381 5378 5375 5372 5368 5364
5457 5456 5454 5452 5449 5447 5444 5443 5441 5439 5437 5435 5433 5430 5428 5425 5423 5420 5418 5415 5413 5411 5409 5406 5403 5400 5397 5394 5392 5389 5386 5383 5380 5378 5375 5372 5369 5365 5362 5359 5355 5351 5347
5445 5442 5439 5437 5435 5432 5430 5428 5426 5424 5422 5419 5417 5414 5412 5410 5408 5406 5403 5399 5397 5395 5392 5390 5388 5385 5381 5379 5376 5373 5370 5367 5364 5360 5357 5354 5350 5347 5343 5340 5336 5333 5329
5430 5427 5424 5421 5419 5416 5414 5413 5411 5408 5404 5402 5400 5398 5396 5393 5391 5388 5385 5382 5380 5378 5375 5372 5369 5366 5363 5360 5356 5353 5351 5348 5345 5342 5339 5336 5332 5328 5324 5320 5317 5313 5309
5414 5411 5409 5406 5403 5400 5397 5394 5390 5389 5387 5384 5382 5380 5378 5376 5373 5371 5368 5365 5362 5359 5355 5352 5349 5346 5343 5340 5337 5333 5331 5328 5326 5322 5319 5315 5311 5307 5304 5300 5297 5293 5289
5399 5396 5392 5389 5387 5383 5380 5376 5372 5370 5368 5366 5364 5361 5358 5356 5353 5350 5348 5346 5343 5339 5336 5333 5329 5325 5322 5319 5316 5313 5310 5308 5305 5302 5298 5294 5290 5286 5283 5279 5275 5272 5268
Wind_Speed
62 58 52 44 38 39 39 38 36 40 46 49 51 51 48 47 48 50 53 55 58 60 66 73 76 73 73 75 77 79 80 85 88 82 80 78 74 70 70 55 48 42 39
57 50 44 35 37 37 36 33 36 42 43 43 45 39 40 38 43 47 50 51 53 57 58 59 62 67 68 69 72 75 76 80 87 84 76 68 72 78 76 57 58 61 58
48 42 35 35 36 35 34 36 40 41 42 42 40 37 38 41 46 50 45 42 44 46 41 43 49 57 60 64 66 69 69 73 83 83 73 75 83 75 61 58 62 59 60
40 35 32 35 36 32 33 32 35 39 42 40 43 38 36 37 44 42 40 32 35 35 28 30 32 43 51 56 59 58 62 68 77 79 74 74 67 71 60 61 71 58 59
34 29 30 36 33 33 32 33 34 39 33 39 39 31 30 33 34 36 29 26 27 26 21 15 22 30 40 46 48 52 60 61 69 75 72 66 65 63 58 64 56 65 58
28 28 32 32 29 31 35 34 35 31 35 37 32 28 30 29 33 32 26 19 19 15 10 4 10 18 28 36 45 48 55 57 58 65 62 59 61 59 66 70 51 56 62
25 25 30 29 28 29 30 30 31 30 35 31 33 30 30 28 32 32 29 21 13 11 5 5 9 13 22 33 38 42 45 46 54 55 54 59 69 79 60 59 59 57 59
21 25 26 27 27 26 25 27 34 28 26 31 30 33 30 29 31 34 31 27 23 14 10 7 2 10 19 25 28 31 34 42 42 42 44 41 48 51 59 57 56 57 55
22 23 21 24 26 23 22 25 29 25 27 28 29 32 29 23 27 25 31 34 30 33 31 21 13 4 8 16 24 31 33 33 33 35 37 37 39 43 53 65 65 64 60
22 20 18 22 25 21 18 20 24 28 29 27 26 28 28 26 23 22 29 26 26 24 21 21 24 17 10 9 10 14 18 25 29 33 35 35 36 39 41 42 53 56 47
17 17 18 19 19 17 19 23 26 29 31 32 34 38 34 27 23 23 22 22 21 21 20 18 15 16 13 10 5 7 14 17 21 25 29 33 38 33 30 36 36 40 43
13 13 13 14 15 15 17 20 24 27 30 33 37 40 41 45 42 45 40 34 27 22 16 19 13 7 6 2 3 6 11 15 22 25 24 29 36 45 30 30 31 36 30
11 11 11 12 14 14 15 18 20 22 25 28 29 30 32 34 37 40 42 44 44 44 42 38 35 34 31 25 17 13 12 9 10 13 14 15 16 12 5 5 5 5 6
7 7 9 11 12 13 14 15 17 18 18 20 21 23 25 27 29 31 32 32 32 32 31 32 32 31 31 29 29 29 27 24 22 20 18 17 12 7 5 5 8 12 15
10 7 6 8 12 15 16 16 16 15 15 16 17 19 20 20 22 23 24 25 25 26 26 26 25 24 23 22 21 20 18 16 14 14 13 9 8 9 12 14 16 18 22
15 13 12 12 11 13 16 16 16 15 14 14 14 16 18 19 20 22 22 23 24 24 24 24 24 24 23 22 21 20 19 18 18 19 19 20 22 24 24 23 24 26 28
22 20 19 18 19 18 18 19 20 18 18 18 19 20 20 21 22 24 25 26 27 27 27 26 25 24 24 25 25 26 26 25 26 27 28 29 29 30 30 31 33 34 36
30 28 27 27 25 24 24 24 24 24 24 23 23 23 23 23 23 24 25 27 28 27 28 28 29 30 30 30 30 30 30 30 30 31 32 33 35 36 39 40 42 42 44
36 34 34 32 33 32 32 31 31 31 30 29 29 29 29 30 30 32 34 35 35 35 35 34 34 33 33 32 32 32 33 34 35 36 37 37 38 40 42 43 46 49 51
41 40 38 38 38 38 39 38 37 36 36 37 37 38 39 40 40 39 37 35 35 37 39 40 39 38 39 39 39 39 40 41 42 43 44 45 46 48 51 52 54 55 56
43 44 45 44 44 46 45 46 45 44 44 44 44 45 46 45 41 39 38 38 41 41 43 42 43 45 46 43 44 45 45 46 47 47 49 50 52 55 57 59 59 59 59
42 45 47 47 48 49 50 51 52 52 52 50 49 49 48 47 44 46 46 47 47 45 48 53 52 53 52 52 53 53 53 52 52 53 53 55 56 57 59 61 62 61 62
40 44 47 50 51 52 52 52 51 51 51 52 51 49 52 55 54 52 52 52 51 50 55 56 55 58 59 57 59 60 61 60 59 59 59 59 60 60 61 62 63 62 61
46 47 49 51 50 53 57 56 53 53 53 55 55 57 56 55 55 55 57 58 59 62 65 67 65 62 63 64 64 66 64 61 60 61 62 62 62 63 63 64 64 64 64
49 50 52 54 55 56 59 60 61 61 61 61 63 64 62 61 60 60 59 59 59 61 63 68 64 63 64 66 66 65 63 62 63 65 66 66 66 66 67 67 67 68 68
54 52 52 53 55 58 62 64 64 63 67 66 69 71 72 72 71 68 72 71 67 65 68 66 65 65 68 68 65 64 64 65 67 67 67 68 68 68 70 70 70 70 69
Wind_Direction
314 313 310 312 309 309 310 311 317 310 307 308 308 305 299 295 292 290 289 284 279 276 274 268 258 251 246 240 236 237 233 231 236 234 234 236 233 238 239 231 243 250 247
317 314 316 315 314 315 314 318 319 316 315 313 310 309 303 303 304 299 297 290 285 283 277 263 253 244 239 236 232 232 232 230 230 233 233 231 231 226 236 231 240 255 253
318 318 319 318 319 320 321 313 313 320 320 314 312 310 305 306 307 307 301 295 295 291 275 263 251 236 231 228 229 226 225 228 227 229 229 228 225 228 227 230 238 242 254
321 322 323 324 326 328 326 323 326 327 327 325 323 320 316 313 314 314 310 301 300 301 285 263 245 232 222 222 225 223 220 224 226 225 225 229 239 239 237 229 238 247 247
326 328 330 330 331 335 339 340 338 334 334 337 345 339 334 330 329 327 320 310 305 309 301 274 237 221 216 217 221 217 219 221 222 222 224 226 235 241 244 237 244 245 244
329 333 335 334 333 333 338 344 342 342 343 351 342 347 356 354 347 349 342 319 321 323 319 278 230 220 216 216 213 213 218 218 219 218 224 231 237 233 234 234 244 240 246
332 337 339 337 339 339 344 346 349 341 350 2 1 11 13 8 2 6 14 13 348 347 357 246 220 217 217 211 211 215 216 216 212 210 220 230 229 230 239 232 233 233 241
342 342 343 346 353 354 355 356 360 4 9 9 16 16 21 28 27 29 26 34 38 33 30 28 129 196 201 204 205 208 209 206 207 217 229 239 248 260 244 243 231 237 242
341 347 347 351 360 2 353 351 2 8 6 7 16 20 26 32 29 28 33 38 52 48 44 47 58 99 186 189 189 183 192 202 212 225 237 245 250 247 248 253 255 261 265
339 347 351 352 3 7 4 4 10 11 14 7 11 14 23 26 23 30 28 39 36 50 50 52 51 67 95 121 154 179 191 211 220 228 234 237 244 247 245 248 252 253 251
345 355 3 359 18 26 31 36 38 37 34 34 33 35 35 33 29 17 24 27 34 43 44 47 47 44 61 46 104 155 194 214 226 233 238 249 250 236 250 252 241 247 250
20 11 15 24 35 28 29 32 36 42 48 49 48 49 45 46 47 49 49 49 46 44 40 43 58 30 3 197 265 268 246 246 248 246 245 252 247 252 248 219 218 236 228
37 37 37 27 27 22 18 19 26 32 38 46 47 48 50 51 52 51 49 47 47 49 51 58 59 61 62 66 73 90 102 128 141 146 149 162 172 177 153 46 23 0 300
0 18 22 9 3 2 2 3 9 19 28 34 39 44 43 41 39 41 41 42 45 46 50 49 49 52 51 49 48 43 44 45 44 41 35 29 19 359 333 319 297 285 273
304 323 350 352 343 345 350 349 351 360 10 14 15 16 19 22 24 25 26 26 26 27 27 26 26 28 30 30 29 27 25 25 26 13 8 356 337 325 319 314 307 297 290
273 292 299 303 304 312 321 323 328 329 334 337 340 344 347 350 352 355 358 359 358 358 358 358 359 358 357 357 356 353 350 346 342 338 333 329 326 324 320 312 304 297 294
262 267 275 279 291 295 296 299 301 304 307 311 313 316 320 324 327 329 331 332 333 334 335 335 335 333 331 329 328 326 325 323 320 319 318 317 316 314 310 306 302 295 290
265 265 268 273 276 283 287 288 290 292 291 291 293 297 301 305 308 311 314 315 316 315 314 313 312 312 311 310 308 306 305 305 304 304 302 302 301 301 301 300 298 295 293
267 266 267 271 273 275 278 282 284 286 287 290 292 293 294 296 299 303 304 305 306 307 307 307 307 307 306 305 304 303 304 304 304 303 303 302 299 296 293 291 290 290 290
270 269 268 269 271 273 276 279 281 283 285 288 289 291 293 296 298 298 297 299 304 307 308 304 302 303 303 303 302 301 302 302 303 303 303 302 302 299 297 295 294 291 288
270 271 271 270 269 271 274 278 280 280 281 283 285 287 290 290 291 290 288 292 294 295 301 305 301 298 298 296 296 295 295 295 296 298 298 299 299 298 297 297 297 295 291
273 273 273 273 272 271 271 273 275 276 278 280 282 285 285 283 279 280 281 285 288 289 292 295 298 298 298 295 292 293 293 292 292 292 292 293 293 293 293 293 292 291 290
279 278 280 273 269 273 274 274 275 276 278 279 278 280 285 286 284 284 284 284 287 291 293 290 291 292 294 294 296 294 289 289 288 289 291 291 290 290 291 292 293 292 290
279 277 275 277 278 275 270 274 276 275 275 275 275 278 280 281 281 281 282 284 285 290 292 295 287 286 288 291 292 294 289 288 287 287 288 288 288 288 289 290 290 291 290
276 276 276 277 277 277 278 275 270 270 274 276 278 278 280 282 282 283 284 285 287 289 290 290 286 286 288 289 289 288 287 287 286 287 287 286 286 287 288 290 290 290 290
276 278 279 278 278 279 276 275 275 275 276 279 277 276 276 276 278 279 282 286 284 284 286 286 287 289 290 289 286 285 286 286 286 285 285 286 287 287 286 287 289 289 290